EW5196 Weather Reports


time (UTC)temp
F
wind
direction
speed
knots
gust
knots
rain 1hr
in
rain 24hr
in
rain mn
in
humidity
%
barometer
mb
20260505011341 66 144 0.0 1.7 0.00 0.00 0.00 56 1013.3
20260505010837 66 150 1.7 1.7 0.00 0.00 0.00 52 1013.6
20260505010333 66 168 0.9 1.7 0.00 0.00 0.00 54 1013.4
20260505005830 66 158 1.7 1.7 0.00 0.00 0.00 52 1013.2
20260505005327 66 160 1.7 2.6 0.00 0.00 0.00 51 1013.3
20260505004825 67 158 1.7 2.6 0.00 0.00 0.00 58 1013.2
20260505004320 68 161 1.7 2.6 0.00 0.00 0.00 57 1013.2
20260505003818 68 147 0.9 1.7 0.00 0.00 0.00 54 1013.0
20260505003315 68 165 1.7 1.7 0.00 0.00 0.00 47 1013.4
20260505002811 68 103 0.0 1.7 0.00 0.00 0.00 49 1013.2
20260505002308 68 163 0.9 1.7 0.00 0.00 0.00 50 1013.2
20260505001807 69 149 1.7 1.7 0.00 0.00 0.00 52 1013.3
20260505001303 70 119 0.9 1.7 0.00 0.00 0.00 52 1013.2
20260505000800 70 144 1.7 2.6 0.00 0.00 0.00 42 1012.9
20260505000258 70 81 0.0 1.7 0.00 0.00 0.00 48 1013.3
20260504235754 70 159 1.7 1.7 0.00 0.00 0.00 43 1013.7
20260504235245 71 169 1.7 1.7 0.00 0.00 0.00 42 1013.6
20260504234742 71 169 1.7 1.7 0.00 0.00 0.00 43 1013.6
20260504234240 71 170 1.7 2.6 0.00 0.00 0.00 41 1013.4
20260504233736 72 158 1.7 1.7 0.00 0.00 0.00 39 1013.2
20260504233232 72 171 1.7 1.7 0.00 0.00 0.00 38 1013.2
20260504232729 72 166 1.7 2.6 0.00 0.00 0.00 38 1013.4
20260504232226 72 160 1.7 1.7 0.00 0.00 0.00 38 1013.1
20260504231722 73 176 0.9 2.6 0.00 0.00 0.00 38 1013.1
20260504231218 73 169 2.6 2.6 0.00 0.00 0.00 37 1013.0
20260504230714 73 151 1.7 1.7 0.00 0.00 0.00 37 1013.1
20260504230213 74 109 1.7 2.6 0.00 0.00 0.00 36 1012.9
20260504225712 74 151 0.9 2.6 0.00 0.00 0.00 36 1012.8
20260504225208 75 71 1.7 2.6 0.00 0.00 0.00 36 1013.0
20260504224705 75 137 0.9 2.6 0.00 0.00 0.00 35 1013.0
20260504224203 75 156 2.6 2.6 0.00 0.00 0.00 35 1013.1
20260504223659 75 227 0.9 2.6 0.00 0.00 0.00 34 1013.0
20260504223154 76 105 0.0 2.6 0.00 0.00 0.00 34 1012.9
20260504222652 76 230 1.7 2.6 0.00 0.00 0.00 34 1013.1
20260504222148 77 204 0.9 1.7 0.00 0.00 0.00 32 1013.3
20260504221645 77 168 1.7 2.6 0.00 0.00 0.00 32 1013.0
20260504221143 77 204 3.5 3.5 0.00 0.00 0.00 33 1013.0
20260504220639 78 176 1.7 2.6 0.00 0.00 0.00 33 1013.1
20260504220137 77 172 0.9 2.6 0.00 0.00 0.00 31 1013.2
20260504215633 77 126 0.0 3.5 0.00 0.00 0.00 31 1013.1
20260504215131 77 154 0.9 2.6 0.00 0.00 0.00 31 1012.9
20260504214626 77 147 0.9 3.5 0.00 0.00 0.00 32 1013.0
20260504214122 77 141 1.7 3.5 0.00 0.00 0.00 33 1012.8
20260504213619 77 132 0.9 2.6 0.00 0.00 0.00 33 1013.0
20260504213116 77 98 1.7 2.6 0.00 0.00 0.00 31 1013.2
20260504212612 77 100 0.0 2.6 0.00 0.00 0.00 33 1012.8
20260504212109 77 186 0.0 1.7 0.00 0.00 0.00 30 1012.8
20260504211606 77 198 1.7 1.7 0.00 0.00 0.00 31 1013.0
20260504211103 77 139 4.3 4.3 0.00 0.00 0.00 31 1013.1
20260504210601 77 173 0.9 2.6 0.00 0.00 0.00 30 1013.0
20260504210057 78 79 0.0 2.6 0.00 0.00 0.00 32 1013.0
20260504205555 79 86 0.0 2.6 0.00 0.00 0.00 32 1013.0
20260504205052 78 96 1.7 2.6 0.00 0.00 0.00 30 1012.8
20260504204550 78 178 1.7 1.7 0.00 0.00 0.00 32 1013.0
20260504204049 78 98 0.9 2.6 0.00 0.00 0.00 31 1013.0
20260504203546 78 223 0.0 0.9 0.00 0.00 0.00 31 1013.0
20260504203044 78 175 0.0 2.6 0.00 0.00 0.00 31 1013.1
20260504202539 78 152 1.7 4.3 0.00 0.00 0.00 30 1013.3
20260504202037 78 189 0.9 4.3 0.00 0.00 0.00 31 1013.3
20260504201533 78 201 1.7 4.3 0.00 0.00 0.00 30 1013.4
20260504201032 78 45 1.7 2.6 0.00 0.00 0.00 32 1013.1
20260504200527 79 216 5.2 5.2 0.00 0.00 0.00 29 1013.3
20260504200024 78 202 1.7 1.7 0.00 0.00 0.00 30 1013.4
20260504195520 78 191 0.9 1.7 0.00 0.00 0.00 32 1013.2
20260504195017 78 164 1.7 2.6 0.00 0.00 0.00 32 1013.4
20260504194514 79 6 0.9 2.6 0.00 0.00 0.00 29 1013.5
20260504194009 79 144 3.5 4.3 0.00 0.00 0.00 29 1013.7
20260504193506 78 156 2.6 3.5 0.00 0.00 0.00 29 1013.7
20260504193005 79 125 1.7 1.7 0.00 0.00 0.00 30 1013.7
20260504192502 78 128 1.7 4.3 0.00 0.00 0.00 29 1013.8
20260504192001 78 183 1.7 1.7 0.00 0.00 0.00 28 1013.9
20260504191458 78 199 0.9 2.6 0.00 0.00 0.00 31 1014.2
20260504190953 77 161 0.9 1.7 0.00 0.00 0.00 31 1014.3
20260504190449 77 309 0.9 3.5 0.00 0.00 0.00 33 1014.2
20260504185946 77 119 0.0 3.5 0.00 0.00 0.00 32 1014.5
20260504185443 77 172 0.9 4.3 0.00 0.00 0.00 29 1014.8
20260504184939 76 157 2.6 4.3 0.00 0.00 0.00 31 1014.7
20260504184435 76 68 0.0 2.6 0.00 0.00 0.00 32 1014.8
20260504183931 76 225 0.0 2.6 0.00 0.00 0.00 31 1014.8
20260504183429 76 123 0.9 3.5 0.00 0.00 0.00 33 1014.8
20260504182926 75 201 0.9 4.3 0.00 0.00 0.00 30 1014.9
20260504182423 75 145 2.6 4.3 0.00 0.00 0.00 30 1014.9
20260504181920 75 155 2.6 3.5 0.00 0.00 0.00 31 1014.8
20260504181417 75 132 1.7 2.6 0.00 0.00 0.00 33 1015.0
20260504180916 74 125 2.6 3.5 0.00 0.00 0.00 31 1015.0
20260504180415 74 86 2.6 2.6 0.00 0.00 0.00 33 1015.1
20260504175912 73 149 0.0 2.6 0.00 0.00 0.00 34 1014.9
20260504175409 73 88 1.7 2.6 0.00 0.00 0.00 34 1015.3
20260504174907 73 156 2.6 2.6 0.00 0.00 0.00 35 1015.0
20260504174404 73 146 1.7 2.6 0.00 0.00 0.00 34 1015.0
20260504173901 73 96 0.0 1.7 0.00 0.00 0.00 34 1015.0
20260504173357 73 185 1.7 2.6 0.00 0.00 0.00 33 1015.3
20260504172855 73 83 0.0 2.6 0.00 0.00 0.00 35 1014.9
20260504172351 72 131 1.7 2.6 0.00 0.00 0.00 34 1015.0
20260504171847 72 127 0.9 2.6 0.00 0.00 0.00 33 1015.3
20260504171344 72 136 2.6 4.3 0.00 0.00 0.00 30 1015.2
20260504170842 73 140 1.7 2.6 0.00 0.00 0.00 32 1015.5
20260504170338 73 167 0.0 2.6 0.00 0.00 0.00 33 1015.5
20260504160256 71 107 1.7 3.5 0.00 0.00 0.00 34 1015.8
20260504150722 69 177 0.9 1.7 0.00 0.00 0.00 36 1016.6
20260504150219 68 137 0.9 2.6 0.00 0.00 0.00 37 1016.6
20260504141148 66 52 0.0 1.7 0.00 0.00 0.00 44 1016.9
20260504140645 65 183 0.0 2.6 0.00 0.00 0.00 45 1016.9
20260504140140 64 138 1.7 2.6 0.00 0.00 0.00 45 1017.1
20260504130609 59 144 1.7 3.5 0.00 0.00 0.00 52 1017.2
20260504130105 57 148 2.6 3.5 0.00 0.00 0.00 55 1017.4
20260504110445 48 152 1.7 2.6 0.00 0.00 0.00 81 1018.1
20260504100407 49 147 1.7 1.7 0.00 0.00 0.00 66 1017.8
20260504081800 50 151 2.6 2.6 0.00 0.00 0.00 64 1018.2
20260504081256 50 132 1.7 2.6 0.00 0.00 0.00 66 1018.2
20260504080753 49 119 1.7 2.6 0.00 0.00 0.00 65 1018.2
20260504080249 49 140 1.7 2.6 0.00 0.00 0.00 67 1018.0
20260504070217 46 152 0.9 1.7 0.00 0.00 0.00 80 1018.0
20260504060137 43 167 1.7 2.6 0.00 0.00 0.00 85 1018.2
20260504050606 42 142 1.7 1.7 0.00 0.00 0.00 86 1018.1
20260504045559 43 139 1.7 1.7 0.00 0.00 0.00 85 1018.4
20260504045054 42 149 1.7 1.7 0.00 0.00 0.00 84 1018.0
20260504044553 42 145 1.7 1.7 0.00 0.00 0.00 85 1018.1
20260504044049 42 152 1.7 1.7 0.00 0.00 0.00 86 1018.3
20260504043546 42 150 1.7 2.6 0.00 0.00 0.00 85 1018.2
20260504043043 43 146 1.7 1.7 0.00 0.00 0.00 85 1018.2
20260504042540 43 143 1.7 1.7 0.00 0.00 0.00 86 1018.1
20260504042038 43 143 1.7 2.6 0.00 0.00 0.00 86 1018.3
20260504041533 43 139 1.7 1.7 0.00 0.00 0.00 87 1018.1
20260504041029 43 160 1.7 2.6 0.00 0.00 0.00 86 1018.3
20260504040527 44 153 2.6 2.6 0.00 0.00 0.00 86 1018.2
20260504040024 44 148 1.7 2.6 0.00 0.00 0.00 84 1018.0
20260504035521 44 136 1.7 1.7 0.00 0.00 0.00 85 1018.0
20260504035017 44 135 0.9 1.7 0.00 0.00 0.00 85 1018.2
20260504034515 44 127 1.7 1.7 0.00 0.00 0.00 84 1018.1
20260504034011 44 130 1.7 1.7 0.00 0.00 0.00 81 1017.9
20260504033509 44 141 1.7 1.7 0.00 0.00 0.00 80 1018.3
20260504033007 44 140 1.7 1.7 0.00 0.00 0.00 80 1018.0
20260504032503 44 157 1.7 1.7 0.00 0.00 0.00 81 1018.2
20260504032000 44 149 1.7 1.7 0.00 0.00 0.00 81 1018.1
20260504031456 44 137 1.7 2.6 0.00 0.00 0.00 80 1018.2
20260504030953 44 140 1.7 1.7 0.00 0.00 0.00 80 1018.1
20260504030451 45 149 2.6 2.6 0.00 0.00 0.00 81 1018.1
20260504025946 45 143 1.7 2.6 0.00 0.00 0.00 80 1018.0
20260504025443 45 145 1.7 1.7 0.00 0.00 0.00 79 1017.9
20260504024940 45 140 1.7 2.6 0.00 0.00 0.00 80 1018.2
20260504024437 45 142 1.7 2.6 0.00 0.00 0.00 79 1018.0
20260504023934 45 140 1.7 1.7 0.00 0.00 0.00 80 1018.1
20260504023431 46 145 1.7 1.7 0.00 0.00 0.00 80 1018.0
20260504022926 46 135 1.7 1.7 0.00 0.00 0.00 79 1018.1
20260504022423 46 138 1.7 1.7 0.00 0.00 0.00 79 1017.8
20260504021920 46 132 1.7 2.6 0.00 0.00 0.00 77 1018.0
20260504021417 46 137 1.7 1.7 0.00 0.00 0.00 78 1018.0
20260504020914 46 129 1.7 1.7 0.00 0.00 0.00 78 1017.9
20260504020411 47 136 1.7 1.7 0.00 0.00 0.00 78 1018.0
20260504015907 47 123 0.9 1.7 0.00 0.00 0.00 77 1017.7
20260504015403 47 136 1.7 1.7 0.00 0.00 0.00 76 1017.6
20260504014859 47 132 0.9 1.7 0.00 0.00 0.00 74 1017.7
20260504014355 48 136 1.7 1.7 0.00 0.00 0.00 74 1017.8
20260504013853 48 123 1.7 1.7 0.00 0.00 0.00 77 1017.6
20260504013351 48 129 0.9 1.7 0.00 0.00 0.00 75 1017.9
20260504012847 48 130 0.9 1.7 0.00 0.00 0.00 72 1017.8
20260504012345 49 132 1.7 1.7 0.00 0.00 0.00 73 1017.7
20260504011842 49 134 1.7 1.7 0.00 0.00 0.00 74 1017.7